Regional Weather Roundup
Issued by NWS

Home | Current Version | Previous Version | Text Only | Print | Product List | Glossary Off
Versions: 1 2 3 4 5 6 7 8 9 10 11 12 13 14 15 16 17 18 19 20 21 22 23 24 25 26 27 28 29 30 31 32 33 34 35 36 37 38 39 40 41 42 43 44 45 46 47 48 49 50

000
ASUS43 KIND 221109
RWRIN

WEATHER ROUNDUP FOR INDIANA
NATIONAL WEATHER SERVICE INDIANAPOLIS IN
700 AM EDT MON SEP 22 2014

NOTE: "FAIR" INDICATES FEW OR NO CLOUDS BELOW 12,000 FEET WITH NO
SIGNIFICANT WEATHER AND/OR OBSTRUCTIONS TO VISIBILITY.

* - STATION DOES NOT REPORT WEATHER SUCH AS PRECIPITATION OR FOG.

+ - STATION NOT QUALITY CONTROLLED BY THE NATIONAL WEATHER SERVICE.
    USE DATA WITH CAUTION...ESPECIALLY DEWPOINT AND RELATIVE
    HUMIDITY OBSERVATIONS.

INZ001>003-010>013-019-020-221200-
NORTHWEST INDIANA

CITY           SKY/WX    TMP DP  RH WIND       PRES   REMARKS
GARY /AIRPORT/ MOCLDY    54  43  66 N9        30.21R
KNOX *+        MOCLDY    44  40  88 NE3       30.19R
LA PORTE +     MOCLDY    47  43  86 E5        30.20R
MICHIGAN CITY+ CLOUDY    46  39  76 E5        30.21R
MONTICELLO +   CLEAR     43  42  99 CALM      30.19R
RENSSELAER +   CLEAR     45  45 100 W5        30.20R
VALPARAISO     MOCLDY    50  42  74 N5        30.20R

$$

LMZ046-743>745-221200-
SOUTHERN LAKE MICHIGAN

STATION/POSITION TIME  TEMP WIND        PRES
                       AIR  DIR/SP/G
                 (UTC) (F)  (DEG/KT/KT) (MB)
MICHIGAN CITY    1100   54  360/ 16/ 20   N/A

$$

INZ004-005-014>016-021>024-221200-
NORTH CENTRAL INDIANA

CITY           SKY/WX    TMP DP  RH WIND       PRES   REMARKS
ELKHART        MOCLDY    45  37  76 CALM      30.30
GOSHEN         CLOUDY   N/A N/A N/A N9        30.19R
LOGANSPORT +   CLEAR     43  39  87 CALM      30.20R
PERU/GRISSOM   CLEAR     45  45 100 N5        30.18R
ROCHESTER +    CLEAR     45  43  93 CALM      30.20R
SOUTH BEND     PTCLDY    44  38  79 CALM      30.20R
WARSAW +       CLEAR     43  36  75 N6        30.19R

$$

INZ006>009-017-018-025>027-221200-
NORTHEAST INDIANA

CITY           SKY/WX    TMP DP  RH WIND       PRES   REMARKS
ANGOLA *+      CLOUDY    45  28  53 N6        30.17R
FORT WAYNE     MOCLDY    46  40  79 N7        30.18R
HUNTINGTON +   CLOUDY    44  38  80 N8        30.18R

$$

INZ028-029-035-036-043>045-051>053-221200-
WEST CENTRAL INDIANA

CITY           SKY/WX    TMP DP  RH WIND       PRES   REMARKS
GREENCASTLE +  PTCLDY    48  46  93 CALM      30.20R
LAFAYETTE      CLEAR     44  43  96 NW3       30.20R
TERRE HAUTE    PTCLDY    48  46  93 N5        30.20R

$$

INZ030>032-037>040-046>048-054>057-064-065-221200-
CENTRAL INDIANA

CITY           SKY/WX    TMP DP  RH WIND       PRES   REMARKS
CP ATTERBURY + CLEAR     46  43  87 CALM      30.19R
FRANKFORT +    CLEAR    N/A N/A N/A N5        30.20R
GREENWOOD *+   MOCLDY    48  48 100 N3        30.19R
INDIANAPOLIS   PTCLDY    48  45  89 N6        30.18R
-EAGLE CREEK   PTCLDY    49  45  86 N8        30.18R
KOKOMO *+      PTCLDY    45  39  81 N7        30.19R
MARION +       CLOUDY    44  39  82 N8G18     30.19R
MT COMFORT *+  PTCLDY    45  45 100 N6        30.19R
SHELBYVILLE    CLEAR     48  43  82 N5        30.18R
ZIONSVILLE +   CLEAR     45  42  90 CALM      30.19R

$$

INZ033-034-041-042-049-050-058-059-221200-
EAST CENTRAL INDIANA

CITY           SKY/WX    TMP DP  RH WIND       PRES   REMARKS
MUNCIE         PTCLDY    44  38  79 N10       30.17R

$$

INZ060-061-067>069-081>083-085>088-221200-
SOUTHWEST INDIANA

CITY           SKY/WX    TMP DP  RH WIND       PRES   REMARKS
EVANSVILLE     CLEAR     53  50  89 N3        30.19R
WASHINGTON +   CLEAR     46  46 100 N3        30.18R

$$

INZ062-063-066-070>080-084-089>092-221200-
SOUTH CENTRAL AND SOUTHEAST INDIANA

CITY           SKY/WX    TMP DP  RH WIND       PRES   REMARKS
BEDFORD +      CLEAR     48  45  87 CALM      30.18
BLOOMINGTON    CLEAR     45  44  97 CALM      30.19R
NORTH VERNON + CLEAR     48  48 100 N5        30.17

$$



USA.gov is the U.S. government's official web portal to all federal, state and local government web resources and services.